Regional Weather Roundup
Issued by NWS

Home | Current Version | Previous Version | Graphics & Text | Print | Product List | Glossary On
Versions: 1 2 3 4 5 6 7 8 9 10 11 12 13 14 15 16 17 18 19 20 21 22 23 24 25 26 27 28 29 30 31 32 33 34 35 36 37 38 39 40 41 42 43 44 45 46 47 48 49 50
000
ASUS43 KOAX 222110
RWRNE

WEATHER ROUNDUP FOR NEBRASKA
NATIONAL WEATHER SERVICE OMAHA NE
300 PM CST THU FEB 22 2018

NOTES: SATELLITE DATA IS BEING USED TO AUGMENT CLOUD COVER ABOVE
       12000 FEET.
       "FAIR" INDICATES FEW OR NO CLOUDS BELOW 12,000 FEET WITH NO
       SIGNIFICANT WEATHER AND/OR OBSTRUCTIONS TO VISIBILITY.


NEZ001>004-019>022-054>056-222200-
NEBRASKA PANHANDLE

CITY           SKY/WX    TMP DP  RH WIND       PRES   REMARKS
SCOTTSBLUFF    PTSUNNY   25  19  78 NE3       29.99F
ALLIANCE       LGT SNOW  21  17  84 SW7       29.99S FOG     WCI  12
CHADRON        CLOUDY    21  14  74 NW5       30.03F WCI  15
GORDON         LGT SNOW  23  17  79 SW5       30.01F WCI  17
KIMBALL        CLOUDY    22  15  73 CALM      29.94F
SIDNEY         CLOUDY    24  15  68 VRB6      29.98S WCI  17
$$

NEZ057>060-069>072-079>082-222200-
SOUTHWEST NEBRASKA

CITY           SKY/WX    TMP DP  RH WIND       PRES   REMARKS
NORTH PLATTE   CLOUDY    23  17  78 E7        30.10F WCI  15
IMPERIAL       CLOUDY    24  18  77 SE13      30.05F WCI  12
LEXINGTON      LGT SNOW  25  21  84 SE8       30.14S WCI  17
MCCOOK         CLOUDY    23  19  85 SE8       30.11F WCI  14
OGALLALA       CLOUDY    24  17  74 E5        30.05F WCI  19
$$

NEZ005>010-023>029-035>040-094-222200-
NORTH CENTRAL NEBRASKA

CITY           SKY/WX    TMP DP  RH WIND       PRES   REMARKS
VALENTINE      SNOW      24  20  84 SE6       30.09S VSB 1/2 WCI  17
AINSWORTH      FLURRIES  22  19  89 SE6       30.10S WCI  15
BROKEN BOW     LGT SNOW  22  18  85 SE6       30.12S FOG     WCI  14
O`NEILL        SNOW      23  21  94 E10       30.15F VSB 1/2 WCI  12
ORD            LGT SNOW  23  19  85 S9        30.15S FOG     WCI  13
THEDFORD       CLOUDY    24  18  79 SE5       30.10R WCI  18
$$

NEZ041-046>049-061>064-073>077-083>087-222200-
SOUTH CENTRAL NEBRASKA

CITY           SKY/WX    TMP DP  RH WIND       PRES   REMARKS
GRAND ISLAND   CLOUDY    25  21  85 SE10      30.16F WCI  15
AURORA         CLOUDY    26  23  88 SE6       30.17F WCI  19
HASTINGS       CLOUDY    25  21  85 SE8       30.15F WCI  16
HEBRON         CLOUDY    29  27  92 SE5       30.20F WCI  24
HOLDREGE       CLOUDY    25  22  87 S7        30.13F WCI  18
KEARNEY        CLOUDY    26  20  77 SE9       30.15F WCI  17
YORK           FAIR      27  27 100 SE8       30.19F WCI  18
$$

NEZ011>018-030>034-042>045-222200-
NORTHEAST NEBRASKA

CITY           SKY/WX    TMP DP  RH WIND       PRES   REMARKS
NORFOLK        CLOUDY    25  22  88 SE10      30.19F FOG     WCI  15
ALBION         MIX PCPN  25  21  85 SE8       30.19F WCI  16
BLAIR          CLOUDY    29  27  93 E3        30.23F FOG
COLUMBUS       CLOUDY    26  23  88 E7        30.21F WCI  18
FREMONT        CLOUDY    28  26  94 E7        30.23F FOG     WCI  20
TEKAMAH        MIX PCPN  27  25  92 SE9       30.27F FOG     WCI  18
WAYNE          CLOUDY    26  25  96 SE13      30.23F WCI  15
$$

NEZ050>053-065>068-078-088>093-222200-
SOUTHEAST NEBRASKA

CITY           SKY/WX    TMP DP  RH WIND       PRES   REMARKS
LINCOLN        CLOUDY    29  26  89 E6        30.22F FOG     WCI  23
OMAHA EPPLEY   CLOUDY    29  26  89 SE7       30.27F WCI  22
BEATRICE       CLOUDY    31  29  93 E6        30.20F WCI  25
FALLS CITY     CLOUDY    30  29  96 E10       30.23F WCI  21
NEBRASKA CITY  CLOUDY    31  31 100 SE8       30.22F WCI  23
PLATTSMOUTH    CLOUDY    30  29  95 SE9       30.24F WCI  22
$$

NEZ044-045-051>053-067-222200-
OMAHA AREA

CITY           SKY/WX    TMP DP  RH WIND       PRES   REMARKS
OMAHA EPPLEY   CLOUDY    29  26  89 SE7       30.27F WCI  22
BLAIR          CLOUDY    29  27  93 E3        30.23F FOG
FREMONT        CLOUDY    28  26  94 E7        30.23F FOG     WCI  20
MILLARD        CLOUDY    30  28  90 SE8       30.26F WCI  23
OFFUTT AFB     CLOUDY    29  27  89 SE8       30.25F WCI  22
PLATTSMOUTH    CLOUDY    30  29  95 SE9       30.24F WCI  22
WAHOO          CLOUDY    28  27  93 SE9       30.24F FOG     WCI  20
$$



USA.gov is the U.S. government's official web portal to all federal, state and local government web resources and services.